SCP
0 0 0 0 0 -0 0 0 0 0 0 0 0 0 0 0 0 0 0 0 0 0 0 0 0 0 0 0 0 0 0 0 0 0 0 0 0 0 0 0 0 0 0
0 0 0 0 0 0 0 0 0 0 0 0 0 0 0 0 0 0 0 0 0 0 0 0 0 0 0 0 0 0 0 0 0 0 0 0 0 0 0 0 0 0 0
0 0 0 0 0 0 -0 0 -0 0 0 0 0 0 0 0 0 0 0 0 0 0 0 0 0 0 0 0 0 0 0 0 0 0 0 0 0 0 0 0 0 0 0
0 0 0 0 0 0 0 0 0 0 0 0 0 0 0 0 0 0 0 0 0 0 0 0 0 0 0 0 0 0 0 0 0 0 0 0 0 0 0 0 0 0 0
0 0 0 0 0 -0 0 -0 0 0 0 0 0 0 0 0 0 0 0 0 0 0 0 0 0 0 0 0 0 0 0 0 0 0 0 0 0 0 0 0 0 0 0
0 0 0 0 0 0 -0 -0 0 0 0 0 0 0 0 0 0 0 0 0 0 0 0 0 0 0 0 0 0 0 0 0 0 0 0 0 0 0 0 0 0 0 0
0 0 0 0 0 0 0 -0 0 0 -0 0 0 0 0 0 0 0 0 0 0 0 0 0 0 0 0 0 0 0 0 0 0 0 0 0 0 0 0 0 0 0 0
0 0 0 0 0 0 0 -0 0 0 0 0 0 0 0 0 0 0 0 0 0 0 0 0 0 0 0 0 0 0 0 0 0 0 0 0 0 0 0 0 0 0 0
0 0 0 0 0 0 0 0 0 0 -0 0 0 0 0 0 0 0 0 0 0 0 0 0 0 0 0 0 0 0 0 0 0 0 0 0 0 0 0 0 0 0 0
0 0 0 0 0 0 0 0 0 -0 -0 -0 0 0 0 0 0 0 0 0 0 0 0 0 0 0 0 0 0 0 0 0 0 0 0 0 0 0 0 0 0 0 0
0 0 0 0 0 0 0 0 0 0 -0 -0 -0 0 0 0 0 0 0 0 0 0 0 0 0 0 0 0 0 0 0 0 0 0 0 0 0 0 0 0 0 0 0
0 0 0 0 0 0 0 -0 -0 0 0 -0 -0 -0 0 0 0 0 0 0 0 0 0 0 0 0 0 0 0 0 0 0 0 0 0 0 0 0 0 0 0 0 0
0 0 0 0 0 0 0 0 0 0 0 0 0 -0 -0 -0 0 0 0 0 0 0 0 0 0 0 0 0 0 0 0 0 0 0 0 0 0 0 0 0 0 0 0
0 0 0 0 0 0 0 0 0 0 0 0 0 0 0 -0 -0 -0 0 0 0 0 0 0 0 0 0 0 0 0 0 0 0 0 0 0 0 0 0 0 0 0 0
0 0 0 0 0 0 0 0 0 0 0 0 0 0 0 0 0 -0 -0 -0 0 0 0 0 0 0 0 0 0 0 0 0 0 0 0 0 0 0 0 0 0 0 0
0 0 0 0 0 0 0 0 0 0 0 0 0 0 0 0 0 0 0 -0 -0 -0 0 0 0 0 0 0 0 0 0 0 0 0 0 0 0 0 0 0 0 0 0
0 0 0 0 0 0 0 0 0 0 -0 -0 -0 -0 -0 -0 -0 -0 0 -0 -0 -0 -0 0 0 0 0 0 0 0 0 0 0 0 0 0 0 0 0 0 -0 -0 -0
0 0 0 0 0 0 0 0 0 0 0 0 0 0 -0 -0 -0 -0 0 0 0 0 0 0 0 0 0 -0 -0 -0 -0 0 0 0 0 0 0 0 0 0 0 0 0
0 0 0 0 0 0 0 0 0 0 0 0 0 0 0 0 0 0 -0 -0 0 -0 -0 0 0 0 0 0 -0 0 0 0 0 0 0 0 0 -0 -0 -0 -0 -0 -0
0 0 0 0 0 0 0 0 0 0 0 0 0 0 0 0 0 0 0 0 0 0 0 0 0 0 0 0 0 0 0 0 0 -0 -0 0 0 -0 -0 0 0 0 -0
0 0 0 0 0 0 0 0 0 0 0 0 0 0 0 0 0 0 0 -0 0 0 0 0 -0 -0 -0 -0 -0 -0 -0 -0 -0 -0 0 -0 0 0 -0 -0 -0 -0 -0
0 0 0 0 0 0 0 0 0 0 0 0 0 0 0 0 0 0 0 0 -0 -0 0 0 0 0 0 0 -0 -0 -0 0 0 -0 -0 -0 -0 0 0 0 -0 -0 -0
0 0 0 0 0 0 0 0 0 0 0 0 0 0 0 0 0 0 0 0 0 -0 -0 -0 -0 -0 0 0 0 -0 -0 -0 0 0 0 -0 0 0 0 -0 -0 0 0
0 0 0 0 0 0 0 0 0 0 0 0 0 0 0 0 0 0 0 0 0 0 0 -0 -0 -0 -0 -0 0 0 0 0 0 0 0 0 0 0 0 0 0 0 0
0 0 0 0 0 0 0 0 0 0 0 0 0 0 0 0 0 0 0 0 0 0 0 0 0 -0 -0 -0 -0 0 0 0 0 0 0 0 0 0 0 0 0 0 0
0 0 0 0 0 0 0 0 0 0 0 0 0 0 0 0 0 0 0 0 0 0 0 0 0 0 0 0 0 0 0 0 0 0 0 0 0 0 0 0 0 0 0
Wind_Speed_500mb
16 19 24 27 28 31 32 32 26 22 22 12 17 20 16 20 29 33 46 50 51 50 53 52 48 46 46 38 37 39 39 38 36 35 31 31 34 36 38 39 39 39 36
16 18 22 26 29 32 32 31 29 25 22 16 14 11 12 9 23 28 34 48 45 49 54 55 54 50 46 42 39 35 37 36 34 30 27 21 18 25 21 22 20 17 17
19 19 21 28 31 31 31 32 29 28 19 19 14 14 10 10 17 26 23 32 50 46 49 50 59 53 49 44 41 37 36 34 34 31 23 9 11 8 6 11 10 8 12
16 21 23 29 31 32 32 31 27 28 22 14 11 12 13 11 14 29 30 25 35 48 48 54 58 61 53 48 45 40 37 35 34 33 33 35 33 15 12 8 2 9 13
18 20 23 30 33 33 32 28 24 22 22 16 11 6 11 12 11 10 21 19 22 38 43 55 47 50 47 46 46 43 43 43 40 39 38 36 39 39 33 28 27 19 21
18 22 25 29 31 32 32 22 24 22 19 17 14 10 9 12 16 12 14 22 13 28 49 47 53 55 51 46 43 48 48 42 44 45 47 42 38 35 34 38 42 35 39
23 22 26 30 32 31 29 22 24 21 18 16 17 13 10 9 16 18 16 18 21 13 21 49 60 59 54 47 46 44 45 46 53 50 46 46 43 44 41 44 45 39 35
19 23 25 29 32 32 31 27 25 23 21 16 14 15 13 10 12 16 19 20 19 23 13 20 47 65 56 51 45 43 47 48 57 44 41 43 45 42 45 47 55 48 33
16 19 21 25 27 28 31 28 25 20 19 15 12 11 10 9 9 13 18 22 26 24 21 13 19 32 42 60 52 53 44 33 23 33 33 33 41 32 24 27 29 32 26
16 16 16 19 24 25 28 27 25 23 20 18 15 13 11 9 7 10 15 18 24 29 25 24 21 21 20 24 25 28 25 19 18 17 24 25 27 23 18 11 17 20 22
16 17 14 12 15 20 22 25 23 22 18 17 16 15 15 11 8 8 12 18 23 28 32 30 26 24 30 22 29 27 29 30 32 31 25 24 21 19 21 22 16 16 20
10 13 10 9 12 15 20 21 21 19 19 15 20 19 18 16 10 6 7 14 22 25 27 30 29 26 25 24 24 29 29 25 22 24 27 26 25 19 18 21 15 22 21
8 10 11 10 11 14 18 20 18 18 14 15 18 17 15 14 11 8 3 2 12 24 28 30 32 28 24 23 24 21 25 22 20 20 21 23 23 17 18 18 18 16 16
4 6 8 8 10 12 14 17 17 15 10 12 15 15 14 17 17 13 9 8 11 20 22 22 24 26 26 25 23 18 20 20 19 18 17 19 17 13 10 14 14 13 14
2 1 4 6 7 11 14 14 12 7 5 10 14 17 19 19 16 17 15 14 15 20 25 26 28 26 24 22 19 22 20 18 16 13 14 10 11 14 12 13 13 13 10
6 3 1 4 7 9 13 13 11 5 9 11 13 16 17 15 14 16 18 16 14 17 23 22 21 19 19 17 15 12 8 15 13 15 14 14 16 16 14 12 11 12 13
11 6 4 1 1 3 8 14 13 10 16 11 11 10 9 11 14 14 14 15 14 16 16 20 16 14 13 13 17 21 20 18 16 17 14 18 22 21 17 15 17 18 19
20 16 9 6 4 5 7 13 16 13 4 6 8 6 6 6 9 11 11 11 12 13 13 13 13 12 15 19 19 19 20 14 10 15 14 15 16 19 20 21 19 18 19
20 23 18 11 7 6 7 10 13 11 8 4 2 3 3 8 11 10 9 6 7 8 10 11 15 15 17 17 17 18 16 12 17 19 17 18 18 18 19 19 21 25 24
17 20 21 16 13 11 10 10 11 12 9 7 3 1 1 1 10 13 9 6 4 7 8 8 9 11 11 12 15 14 16 18 17 14 14 14 16 19 25 25 22 23 26
16 18 19 18 16 14 13 11 10 10 9 9 7 5 3 4 4 7 12 16 20 17 18 16 12 12 13 16 15 16 14 14 13 13 17 21 23 25 26 28 25 21 22
19 19 18 18 16 16 15 14 13 11 11 10 10 9 8 8 8 10 12 12 19 25 24 22 21 20 18 18 17 17 16 19 19 20 23 24 26 29 27 25 25 26 26
21 22 20 20 19 18 18 18 18 15 15 14 13 12 12 12 12 12 13 17 20 23 25 25 26 25 24 24 25 24 23 22 23 24 25 23 25 28 28 27 28 27 27
24 24 27 27 25 24 23 19 25 22 20 18 18 19 18 17 17 18 18 19 21 24 24 23 24 27 28 27 28 27 27 27 27 28 30 30 31 30 30 31 31 32 31
26 30 31 30 28 28 28 28 31 32 29 27 27 26 25 25 25 23 24 25 26 27 28 30 31 31 28 26 28 29 29 30 31 33 33 34 34 34 34 34 34 35 37
32 36 35 34 33 35 34 35 37 39 38 39 39 35 32 31 31 31 32 30 29 33 33 34 33 33 34 37 38 37 37 38 39 37 37 38 39 39 39 39 40 41 40
Wind_Direction_500mb
312 329 336 338 338 348 349 345 340 332 305 285 265 236 212 199 215 193 201 201 206 207 211 209 206 208 211 211 217 219 224 229 234 243 253 266 275 283 286 283 282 280 277
309 321 332 336 333 341 345 342 347 343 329 299 276 261 231 183 142 203 210 212 212 212 218 214 209 207 208 210 215 218 224 227 229 234 246 271 274 290 281 280 276 270 275
305 320 329 336 336 337 343 340 344 347 339 312 288 269 223 188 175 191 207 216 223 218 219 224 211 208 209 212 218 221 226 232 234 237 236 242 242 298 291 317 301 280 277
306 318 328 335 336 336 343 335 339 345 347 320 312 265 246 196 178 199 206 221 219 220 221 224 219 210 210 212 216 222 227 234 243 242 241 243 250 267 279 297 285 314 287
315 318 326 333 335 337 340 333 336 342 342 338 320 292 256 239 218 200 173 201 217 220 218 221 223 216 213 215 217 224 226 231 239 247 249 254 256 255 253 269 275 279 267
326 318 322 333 335 338 343 345 343 344 343 352 338 312 273 238 234 230 185 197 169 212 217 217 216 215 215 211 220 220 224 236 242 246 250 253 255 262 263 263 271 275 269
332 325 323 330 334 339 345 344 346 345 349 0 342 339 307 264 242 230 220 204 201 198 190 203 209 215 214 216 222 228 236 238 244 246 247 252 255 262 267 270 274 267 268
342 336 327 328 334 337 342 344 339 341 348 351 352 345 342 300 261 239 226 218 215 214 210 179 188 211 218 227 234 245 239 257 245 245 253 263 260 263 276 274 273 263 263
349 346 332 326 332 336 340 345 350 348 349 350 352 350 346 327 294 259 236 216 219 217 218 209 166 206 224 231 238 240 236 237 237 237 242 254 249 259 272 263 269 274 257
330 329 335 324 327 336 339 343 348 355 351 351 353 3 6 350 321 273 257 229 217 222 222 216 211 205 209 195 216 207 211 223 244 239 244 244 251 260 242 263 260 249 234
327 325 321 321 325 333 341 342 347 351 350 352 0 11 9 11 357 315 265 244 232 216 212 212 213 220 219 210 210 218 216 222 229 234 224 225 225 227 221 193 209 191 193
343 351 347 336 335 341 341 345 342 354 355 360 3 8 17 19 7 337 301 250 222 221 212 207 198 198 199 188 196 211 217 221 224 227 225 224 215 214 191 211 221 201 217
5 3 356 353 353 353 352 346 347 355 14 17 10 18 20 23 17 3 322 262 206 188 192 196 195 193 191 211 211 209 213 211 217 205 214 216 219 229 233 223 218 220 253
356 16 358 354 1 358 0 358 355 359 28 21 25 16 29 34 38 38 46 91 136 158 165 170 179 183 189 192 190 196 200 203 205 204 187 197 212 220 218 210 211 235 249
187 64 11 345 355 6 6 11 17 22 71 47 32 31 38 42 45 57 66 90 121 142 149 153 170 174 202 188 179 188 195 199 190 178 189 207 216 229 216 209 225 239 231
204 159 69 353 345 7 18 24 30 75 124 103 78 56 47 53 58 67 77 96 119 134 143 152 156 152 157 159 184 185 201 181 197 209 210 202 195 211 212 207 205 199 178
225 216 201 198 58 31 40 51 70 128 146 136 111 77 66 56 58 72 94 108 115 116 127 140 146 158 150 174 187 177 177 190 195 189 190 201 201 206 207 192 179 172 164
243 228 215 201 160 125 86 95 110 128 150 149 138 112 109 113 78 76 94 104 123 137 141 148 147 160 156 174 182 193 192 185 217 220 209 212 214 203 188 174 175 167 158
219 208 203 187 173 147 130 131 145 152 162 174 347 11 120 144 157 135 99 110 133 126 156 169 187 183 184 195 217 215 202 209 227 223 220 196 183 186 180 169 172 161 157
190 190 189 185 176 173 168 166 170 181 186 186 186 333 354 160 162 172 173 179 161 162 155 162 201 204 202 215 221 215 212 222 215 211 201 193 178 183 181 161 166 165 156
177 186 188 188 188 184 188 187 199 200 205 222 226 224 207 210 215 192 180 177 185 192 195 188 195 206 225 224 227 212 202 209 226 218 206 188 184 187 186 169 165 167 165
188 197 196 202 201 203 203 205 211 221 226 234 244 253 254 232 214 214 215 206 199 197 201 209 222 224 231 229 223 220 221 211 205 209 205 198 197 197 191 180 177 177 178
205 212 209 214 215 216 218 215 216 224 236 240 246 250 257 257 251 242 232 228 219 222 222 221 218 220 219 217 217 220 221 218 209 209 211 212 215 213 202 195 193 192 191
225 226 229 230 230 227 228 222 229 231 233 238 249 255 257 253 253 256 247 240 236 237 237 240 235 229 228 225 220 218 218 217 218 218 219 221 219 217 212 209 206 204 203
236 237 238 241 239 239 241 234 237 246 246 241 241 246 249 252 253 247 248 248 245 243 240 235 236 236 233 230 229 228 222 222 222 223 223 225 224 224 223 219 215 214 213
250 248 245 245 246 243 249 248 244 249 253 253 251 251 254 254 253 252 255 255 252 254 249 246 247 247 239 231 228 225 229 231 231 231 234 232 230 230 229 226 224 224 224
Wind_Speed_850mb
16 19 24 27 28 31 32 32 26 22 22 12 17 20 16 20 29 33 46 50 51 50 53 52 48 46 46 38 37 39 39 38 36 35 31 31 34 36 38 39 39 39 36
16 18 22 26 29 32 32 31 29 25 22 16 14 11 12 9 23 28 34 48 45 49 54 55 54 50 46 42 39 35 37 36 34 30 27 21 18 25 21 22 20 17 17
19 19 21 28 31 31 31 32 29 28 19 19 14 14 10 10 17 26 23 32 50 46 49 50 59 53 49 44 41 37 36 34 34 31 23 9 11 8 6 11 10 8 12
16 21 23 29 31 32 32 31 27 28 22 14 11 12 13 11 14 29 30 25 35 48 48 54 58 61 53 48 45 40 37 35 34 33 33 35 33 15 12 8 2 9 13
18 20 23 30 33 33 32 28 24 22 22 16 11 6 11 12 11 10 21 19 22 38 43 55 47 50 47 46 46 43 43 43 40 39 38 36 39 39 33 28 27 19 21
18 22 25 29 31 32 32 22 24 22 19 17 14 10 9 12 16 12 14 22 13 28 49 47 53 55 51 46 43 48 48 42 44 45 47 42 38 35 34 38 42 35 39
23 22 26 30 32 31 29 22 24 21 18 16 17 13 10 9 16 18 16 18 21 13 21 49 60 59 54 47 46 44 45 46 53 50 46 46 43 44 41 44 45 39 35
19 23 25 29 32 32 31 27 25 23 21 16 14 15 13 10 12 16 19 20 19 23 13 20 47 65 56 51 45 43 47 48 57 44 41 43 45 42 45 47 55 48 33
16 19 21 25 27 28 31 28 25 20 19 15 12 11 10 9 9 13 18 22 26 24 21 13 19 32 42 60 52 53 44 33 23 33 33 33 41 32 24 27 29 32 26
16 16 16 19 24 25 28 27 25 23 20 18 15 13 11 9 7 10 15 18 24 29 25 24 21 21 20 24 25 28 25 19 18 17 24 25 27 23 18 11 17 20 22
16 17 14 12 15 20 22 25 23 22 18 17 16 15 15 11 8 8 12 18 23 28 32 30 26 24 30 22 29 27 29 30 32 31 25 24 21 19 21 22 16 16 20
10 13 10 9 12 15 20 21 21 19 19 15 20 19 18 16 10 6 7 14 22 25 27 30 29 26 25 24 24 29 29 25 22 24 27 26 25 19 18 21 15 22 21
8 10 11 10 11 14 18 20 18 18 14 15 18 17 15 14 11 8 3 2 12 24 28 30 32 28 24 23 24 21 25 22 20 20 21 23 23 17 18 18 18 16 16
4 6 8 8 10 12 14 17 17 15 10 12 15 15 14 17 17 13 9 8 11 20 22 22 24 26 26 25 23 18 20 20 19 18 17 19 17 13 10 14 14 13 14
2 1 4 6 7 11 14 14 12 7 5 10 14 17 19 19 16 17 15 14 15 20 25 26 28 26 24 22 19 22 20 18 16 13 14 10 11 14 12 13 13 13 10
6 3 1 4 7 9 13 13 11 5 9 11 13 16 17 15 14 16 18 16 14 17 23 22 21 19 19 17 15 12 8 15 13 15 14 14 16 16 14 12 11 12 13
11 6 4 1 1 3 8 14 13 10 16 11 11 10 9 11 14 14 14 15 14 16 16 20 16 14 13 13 17 21 20 18 16 17 14 18 22 21 17 15 17 18 19
20 16 9 6 4 5 7 13 16 13 4 6 8 6 6 6 9 11 11 11 12 13 13 13 13 12 15 19 19 19 20 14 10 15 14 15 16 19 20 21 19 18 19
20 23 18 11 7 6 7 10 13 11 8 4 2 3 3 8 11 10 9 6 7 8 10 11 15 15 17 17 17 18 16 12 17 19 17 18 18 18 19 19 21 25 24
17 20 21 16 13 11 10 10 11 12 9 7 3 1 1 1 10 13 9 6 4 7 8 8 9 11 11 12 15 14 16 18 17 14 14 14 16 19 25 25 22 23 26
16 18 19 18 16 14 13 11 10 10 9 9 7 5 3 4 4 7 12 16 20 17 18 16 12 12 13 16 15 16 14 14 13 13 17 21 23 25 26 28 25 21 22
19 19 18 18 16 16 15 14 13 11 11 10 10 9 8 8 8 10 12 12 19 25 24 22 21 20 18 18 17 17 16 19 19 20 23 24 26 29 27 25 25 26 26
21 22 20 20 19 18 18 18 18 15 15 14 13 12 12 12 12 12 13 17 20 23 25 25 26 25 24 24 25 24 23 22 23 24 25 23 25 28 28 27 28 27 27
24 24 27 27 25 24 23 19 25 22 20 18 18 19 18 17 17 18 18 19 21 24 24 23 24 27 28 27 28 27 27 27 27 28 30 30 31 30 30 31 31 32 31
26 30 31 30 28 28 28 28 31 32 29 27 27 26 25 25 25 23 24 25 26 27 28 30 31 31 28 26 28 29 29 30 31 33 33 34 34 34 34 34 34 35 37
32 36 35 34 33 35 34 35 37 39 38 39 39 35 32 31 31 31 32 30 29 33 33 34 33 33 34 37 38 37 37 38 39 37 37 38 39 39 39 39 40 41 40
Wind_Direction_850mb
312 329 336 338 338 348 349 345 340 332 305 285 265 236 212 199 215 193 201 201 206 207 211 209 206 208 211 211 217 219 224 229 234 243 253 266 275 283 286 283 282 280 277
309 321 332 336 333 341 345 342 347 343 329 299 276 261 231 183 142 203 210 212 212 212 218 214 209 207 208 210 215 218 224 227 229 234 246 271 274 290 281 280 276 270 275
305 320 329 336 336 337 343 340 344 347 339 312 288 269 223 188 175 191 207 216 223 218 219 224 211 208 209 212 218 221 226 232 234 237 236 242 242 298 291 317 301 280 277
306 318 328 335 336 336 343 335 339 345 347 320 312 265 246 196 178 199 206 221 219 220 221 224 219 210 210 212 216 222 227 234 243 242 241 243 250 267 279 297 285 314 287
315 318 326 333 335 337 340 333 336 342 342 338 320 292 256 239 218 200 173 201 217 220 218 221 223 216 213 215 217 224 226 231 239 247 249 254 256 255 253 269 275 279 267
326 318 322 333 335 338 343 345 343 344 343 352 338 312 273 238 234 230 185 197 169 212 217 217 216 215 215 211 220 220 224 236 242 246 250 253 255 262 263 263 271 275 269
332 325 323 330 334 339 345 344 346 345 349 0 342 339 307 264 242 230 220 204 201 198 190 203 209 215 214 216 222 228 236 238 244 246 247 252 255 262 267 270 274 267 268
342 336 327 328 334 337 342 344 339 341 348 351 352 345 342 300 261 239 226 218 215 214 210 179 188 211 218 227 234 245 239 257 245 245 253 263 260 263 276 274 273 263 263
349 346 332 326 332 336 340 345 350 348 349 350 352 350 346 327 294 259 236 216 219 217 218 209 166 206 224 231 238 240 236 237 237 237 242 254 249 259 272 263 269 274 257
330 329 335 324 327 336 339 343 348 355 351 351 353 3 6 350 321 273 257 229 217 222 222 216 211 205 209 195 216 207 211 223 244 239 244 244 251 260 242 263 260 249 234
327 325 321 321 325 333 341 342 347 351 350 352 0 11 9 11 357 315 265 244 232 216 212 212 213 220 219 210 210 218 216 222 229 234 224 225 225 227 221 193 209 191 193
343 351 347 336 335 341 341 345 342 354 355 360 3 8 17 19 7 337 301 250 222 221 212 207 198 198 199 188 196 211 217 221 224 227 225 224 215 214 191 211 221 201 217
5 3 356 353 353 353 352 346 347 355 14 17 10 18 20 23 17 3 322 262 206 188 192 196 195 193 191 211 211 209 213 211 217 205 214 216 219 229 233 223 218 220 253
356 16 358 354 1 358 0 358 355 359 28 21 25 16 29 34 38 38 46 91 136 158 165 170 179 183 189 192 190 196 200 203 205 204 187 197 212 220 218 210 211 235 249
187 64 11 345 355 6 6 11 17 22 71 47 32 31 38 42 45 57 66 90 121 142 149 153 170 174 202 188 179 188 195 199 190 178 189 207 216 229 216 209 225 239 231
204 159 69 353 345 7 18 24 30 75 124 103 78 56 47 53 58 67 77 96 119 134 143 152 156 152 157 159 184 185 201 181 197 209 210 202 195 211 212 207 205 199 178
225 216 201 198 58 31 40 51 70 128 146 136 111 77 66 56 58 72 94 108 115 116 127 140 146 158 150 174 187 177 177 190 195 189 190 201 201 206 207 192 179 172 164
243 228 215 201 160 125 86 95 110 128 150 149 138 112 109 113 78 76 94 104 123 137 141 148 147 160 156 174 182 193 192 185 217 220 209 212 214 203 188 174 175 167 158
219 208 203 187 173 147 130 131 145 152 162 174 347 11 120 144 157 135 99 110 133 126 156 169 187 183 184 195 217 215 202 209 227 223 220 196 183 186 180 169 172 161 157
190 190 189 185 176 173 168 166 170 181 186 186 186 333 354 160 162 172 173 179 161 162 155 162 201 204 202 215 221 215 212 222 215 211 201 193 178 183 181 161 166 165 156
177 186 188 188 188 184 188 187 199 200 205 222 226 224 207 210 215 192 180 177 185 192 195 188 195 206 225 224 227 212 202 209 226 218 206 188 184 187 186 169 165 167 165
188 197 196 202 201 203 203 205 211 221 226 234 244 253 254 232 214 214 215 206 199 197 201 209 222 224 231 229 223 220 221 211 205 209 205 198 197 197 191 180 177 177 178
205 212 209 214 215 216 218 215 216 224 236 240 246 250 257 257 251 242 232 228 219 222 222 221 218 220 219 217 217 220 221 218 209 209 211 212 215 213 202 195 193 192 191
225 226 229 230 230 227 228 222 229 231 233 238 249 255 257 253 253 256 247 240 236 237 237 240 235 229 228 225 220 218 218 217 218 218 219 221 219 217 212 209 206 204 203
236 237 238 241 239 239 241 234 237 246 246 241 241 246 249 252 253 247 248 248 245 243 240 235 236 236 233 230 229 228 222 222 222 223 223 225 224 224 223 219 215 214 213
250 248 245 245 246 243 249 248 244 249 253 253 251 251 254 254 253 252 255 255 252 254 249 246 247 247 239 231 228 225 229 231 231 231 234 232 230 230 229 226 224 224 224